7 * 24
多渠道服务支持
STARLINK-30072是美国太空探索技术公司(SpaceX)发射的星链(Starlink)低轨互联网通信卫星,于2023年8月7日在美国发射升空。它属于星链星座扩容组网卫星,旨在补充完善全球卫星互联网星座覆盖,提升偏远地区网络接入能力,增强星座整体通信服务稳定性,支持星链项目提供高速低延迟的全球互联服务。
美国
(US)
| 数据来源 | 国际轨道数据 |
| 星历时间: | 2026-09-10T11:45:10+0800 1天前 查看轨道信息 |
| 半长轴: | 6861.151km |
| 偏心率: | 0.0000911 |
| 轨道倾角: | 43.002° |
| 近地点辐角 | 262.695° |
| 升交点赤经 | 54.570° |
| 平近点角 | 97.380° |
| 近地点: | 482.388km |
| 远地点: | 483.64km |
| 周期: | 94.266分钟 |
| 每日圈数: | 15.275918 |